Location: Vassar Physics Lab
(41.6843°N, 73.8954°W)
Time: 16:35:36
(UTC-04:00)

CZ-4B DEB - Visible Passes

Search period start: 23 May 2017 00:00
Search period end: 02 June 2017 00:00
Orbit: 840 x 863 km, 99.0° (Epoch: 22 May)

Date Brightness Start Highest point End Pass type
(mag) Time Alt. Az. Time Alt. Az. Time Alt. Az.
23 May 5.3 04:26:40 10° NNE 04:31:51 43° E 04:37:00 10° S visible
24 May 5.7 04:15:23 10° NNE 04:20:19 34° E 04:25:13 10° SSE visible
25 May 6.1 04:04:10 10° NE 04:08:45 27° E 04:13:19 10° SSE visible
26 May 6.4 03:53:04 10° NE 03:57:11 21° E 04:01:15 10° SE visible
27 May 6.6 03:42:08 10° NE 03:45:34 17° E 03:48:59 10° SE visible
28 May 6.8 03:31:31 10° ENE 03:33:57 13° E 03:36:22 10° ESE visible
30 May 4.7 04:46:52 10° NNE 04:52:18 65° ESE 04:57:44 10° S visible
31 May 5.1 04:35:28 10° NNE 04:40:48 51° E 04:46:07 10° S visible
01 Jun 5.5 04:24:09 10° NNE 04:29:17 40° E 04:34:24 10° SSE visible
